EW3791 Weather Reports


time (UTC)temp
C
wind
direction
speed
KPH
gust
KPH
rain 1hr
cm
rain 24hr
cm
rain mn
cm
humidity
%
barometer
mb
20190524194625 30 96 11.3 27.4 0.00 0.00 0.00 61 1016.2
20190524193045 31 155 9.7 30.6 0.00 0.00 0.00 58 1016.3
20190524191707 31 110 16.1 29.0 0.00 0.00 0.00 59 1016.3
20190524190106 31 177 11.3 27.4 0.00 0.00 0.00 57 1016.6
20190524184654 30 200 11.3 29.0 0.00 0.00 0.00 59 1016.6
20190524183055 31 212 11.3 30.6 0.00 0.00 0.00 59 1016.7
20190524180103 30 162 17.7 35.4 0.00 0.00 0.00 59 1016.9
20190524174511 30 122 14.5 37.0 0.00 0.00 0.00 62 1017.0
20190524173144 30 133 14.5 24.1 0.00 0.00 0.00 63 1017.2
20190524171634 30 117 16.1 29.0 0.00 0.00 0.00 66 1017.3
20190524170149 30 155 11.3 27.4 0.00 0.00 0.00 64 1017.3
20190524164547 30 116 16.1 33.8 0.00 0.00 0.00 65 1017.3
20190524161635 29 184 6.4 25.7 0.00 0.00 0.00 67 1017.3
20190524160027 28 126 20.9 35.4 0.00 0.00 0.00 67 1017.2
20190524154707 29 125 9.7 20.9 0.00 0.00 0.00 67 1017.0
20190524153050 28 140 16.1 33.8 0.00 0.00 0.00 68 1016.8
20190524150207 28 183 9.7 25.7 0.00 0.00 0.00 70 1016.7
20190524143142 27 163 16.1 33.8 0.00 0.00 0.00 71 1015.9
20190524141541 27 64 20.9 37.0 0.00 0.00 0.00 73 1015.9
20190524140134 27 136 16.1 32.2 0.00 0.00 0.00 78 1015.7
20190524134544 26 71 16.1 30.6 0.00 0.00 0.00 81 1015.6
20190524131554 26 109 9.7 27.4 0.00 0.00 0.00 85 1015.4
20190524130006 25 181 14.5 25.7 0.00 0.00 0.00 86 1015.4
20190524124652 25 104 14.5 30.6 0.00 0.00 0.00 86 1015.2
20190524123035 25 130 11.3 19.3 0.00 0.00 0.00 87 1015.1
20190524121701 25 136 11.3 20.9 0.00 0.00 0.00 88 1015.0
20190524120038 24 142 8.0 16.1 0.00 0.00 0.00 89 1014.9
20190524113102 24 184 6.4 12.9 0.00 0.00 0.00 90 1014.6
20190524111531 24 140 8.0 19.3 0.00 0.00 0.00 90 1014.6
20190524110155 24 104 9.7 22.5 0.00 0.00 0.00 90 1014.4
20190524104521 24 116 8.0 16.1 0.00 0.00 0.00 90 1014.5
20190524103254 24 128 6.4 16.1 0.00 0.00 0.00 89 1014.5
20190524101534 24 104 8.0 17.7 0.00 0.00 0.00 89 1014.5
20190524094653 24 111 6.4 17.7 0.00 0.00 0.00 89 1014.5
20190524093011 25 166 6.4 14.5 0.00 0.00 0.00 89 1014.5
20190524091630 25 113 6.4 16.1 0.00 0.00 0.00 89 1014.7
20190524090021 25 93 9.7 17.7 0.00 0.00 0.00 88 1014.8
20190524083057 25 91 9.7 16.1 0.00 0.00 0.00 87 1015.0
20190524080200 25 129 12.9 22.5 0.00 0.00 0.00 88 1015.0
20190524073150 25 133 9.7 24.1 0.00 0.00 0.00 87 1015.2
20190524071515 25 115 12.9 22.5 0.00 0.00 0.00 86 1015.4
20190524070151 25 136 8.0 24.1 0.00 0.00 0.00 86 1015.7
20190524064555 25 173 9.7 24.1 0.00 0.00 0.00 86 1015.9
20190524063142 25 148 9.7 17.7 0.00 0.00 0.00 86 1015.9
20190524061649 26 100 11.3 19.3 0.00 0.00 0.00 85 1016.1
20190524060002 26 125 11.3 22.5 0.00 0.00 0.00 85 1016.1
20190524054612 26 155 8.0 19.3 0.00 0.00 0.00 85 1016.3
20190524053026 26 136 11.3 17.7 0.00 0.00 0.00 84 1016.3
20190524051723 26 181 11.3 20.9 0.00 0.00 0.00 84 1016.4
20190524050119 26 98 9.7 22.5 0.00 0.00 0.00 83 1016.3
20190524044650 26 136 8.0 22.5 0.00 0.00 0.00 83 1016.3
20190524043111 26 93 6.4 22.5 0.00 0.00 0.00 83 1016.3
20190524040111 26 191 12.9 20.9 0.00 0.00 0.00 82 1016.3
20190524034507 26 153 12.9 25.7 0.00 0.00 0.00 82 1016.2
20190524033116 26 150 12.9 25.7 0.00 0.00 0.00 82 1016.0
20190524031557 26 114 9.7 22.5 0.00 0.00 0.00 81 1015.8
20190524030135 26 122 16.1 29.0 0.00 0.00 0.00 81 1015.7
20190524024540 26 74 8.0 25.7 0.00 0.00 0.00 83 1015.5
20190524021555 26 89 11.3 19.3 0.00 0.00 0.00 84 1015.3
20190524014624 27 126 6.4 16.1 0.00 0.00 0.00 84 1015.1
20190524013008 27 125 11.3 24.1 0.00 0.00 0.00 83 1014.9
20190524011625 27 118 11.3 27.4 0.00 0.00 0.00 83 1014.9
20190524010022 27 85 12.9 27.4 0.00 0.00 0.00 82 1014.7
20190524004705 27 90 12.9 30.6 0.00 0.00 0.00 82 1014.6
20190524003041 27 139 14.5 27.4 0.00 0.00 0.00 81 1014.6
20190524001648 27 179 12.9 30.6 0.00 0.00 0.00 81 1014.5
20190524000112 27 131 12.9 33.8 0.00 0.00 0.00 81 1014.5
20190523233128 28 131 11.3 29.0 0.00 0.00 0.00 80 1014.6
20190523231524 28 107 8.0 22.5 0.00 0.00 0.00 81 1014.5
20190523230147 28 116 11.3 25.7 0.00 0.00 0.00 80 1014.6
20190523224615 28 123 12.9 29.0 0.00 0.00 0.00 80 1014.6
20190523221622 28 158 17.7 33.8 0.00 0.00 0.00 79 1014.6
20190523220017 28 119 11.3 38.6 0.00 0.00 0.00 76 1014.7
20190523214644 28 98 11.3 29.0 0.00 0.00 0.00 76 1014.7
20190523213032 28 110 17.7 30.6 0.00 0.00 0.00 75 1014.7
20190523210121 29 140 9.7 27.4 0.00 0.00 0.00 74 1014.7
20190523203153 30 160 9.7 24.1 0.00 0.00 0.00 74 1014.9
20190523201520 29 172 14.5 30.6 0.00 0.00 0.00 75 1015.0
20190523200204 29 120 19.3 32.2 0.00 0.00 0.00 74 1015.2